Regional Weather Roundup
Issued by NWS Memphis, TN

Home | Current Version | Previous Version | Text Only | Print | Product List | Glossary On
Versions: 1 2 3 4 5 6 7 8 9 10 11 12 13 14 15 16 17 18 19 20 21 22 23 24 25 26 27 28 29 30 31 32 33 34 35 36 37 38 39 40 41 42 43 44 45 46 47 48 49 50
000
ASUS44 KMEG 201010
RWRMEG
MEMPHIS CWA HOURLY WEATHER ROUNDUP
NATIONAL WEATHER SERVICE MEMPHIS TN
500 AM CDT SAT SEP 20 2014

...WEST TENNESSEE...

CITY           SKY/WX    TMP DP  RH WIND       PRES   REMARKS
MEMPHIS INTL   CLEAR     74  65  73 S9        30.01S
NWS MEMPHIS      N/A     68 N/A N/A MISG        N/A
JACKSON        CLEAR     70  65  84 S5        30.04R
LEXINGTON      CLEAR     66  64  94 CALM      30.05R
SAVANNAH       CLEAR     66  66 100 S5        30.06R
DYERSBURG      CLEAR     64  55  72 CALM      30.04R
UNION CITY     CLEAR     59  59 100 CALM      30.03R
PARIS          MOCLDY    63  61  94 S5        30.05R
HUNTINGDON     CLEAR     63  62  96 CALM      30.05R


...EASTERN ARKANSAS...

CITY           SKY/WX    TMP DP  RH WIND       PRES   REMARKS
JONESBORO      CLEAR     64  63  96 CALM      30.01S
WEST MEMPHIS   PTCLDY    65  65 100 CALM      30.00R FOG
BATESVILLE     CLEAR     63  61  94 CALM      30.02R
NEWPORT        FOG       64  63  94 S5        30.03R VSB 1/4
WALNUT RIDGE   MOCLDY    63  61  94 NW6       30.02R VSB 3/4
BLYTHEVILLE    CLEAR     68  67  96 CALM      30.02R
SEARCY         CLEAR     64  64 100 CALM      30.02R FOG
STUTTGART      CLEAR     70  64  83 E3        30.01R
PINE BLUFF     CLEAR     66  65  96 CALM      30.00R FOG
MONTICELLO     CLEAR     67  65  93 CALM      29.99R


...NORTH MISSISSIPPI...

CITY           SKY/WX    TMP DP  RH WIND       PRES   REMARKS
TUPELO         CLEAR     71  65  81 S5        30.04R
OXFORD         CLEAR     68  64  88 SE6       30.05R
OLIVE BRANCH   CLEAR     66  66 100 SE6       30.03R
CLARKSDALE       N/A     68  68 100 CALM      30.01S
CORINTH          N/A     63  61  94 CALM      30.05R FOG
GRENADA        CLEAR     70  66  88 E6        30.01S
GREENWOOD      CLEAR     71  65  81 E6        29.99S
COLUMBUS       CLEAR     68  66  92 E3        30.04R
STARKVILLE     FAIR      68  64  88 E5        30.03R
GOLDEN TRIANGL CLEAR     70  63  78 E8        30.04S


...SOUTHEAST MISSOURI...

CITY           SKY/WX    TMP DP  RH WIND       PRES   REMARKS
WEST PLAINS    CLEAR     63  61  93 CALM      30.04S FOG
POPLAR BLUFF   CLEAR     59  56  89 CALM      30.02R FOG
CAPE GIRARDEAU FOG       56  55  97 CALM      30.03R VSB 1/2


...NORTHWEST ALABAMA...

CITY           SKY/WX    TMP DP  RH WIND       PRES   REMARKS
MUSCLE SHOALS  CLEAR     69  64  84 E6        30.08S


...MIDDLE TENNESSEE...

CITY           SKY/WX    TMP DP  RH WIND       PRES   REMARKS
NASHVILLE      CLEAR     68  63  84 S6        30.09R
CLARKSVILLE    CLEAR     66  63  90 S3        30.06R
DICKSON        CLEAR     68  63  83 S7        30.07R
COLUMBIA       CLEAR     64  64 100 CALM      30.08R
LEWISBURG      CLEAR     67  63  87 S5        30.09R


...WESTERN KENTUCKY...

CITY           SKY/WX    TMP DP  RH WIND       PRES   REMARKS
PADUCAH        CLEAR     63  58  83 CALM      30.03R
FORT CAMPBELL  PTCLDY    68  68 100 S7        30.06R


...CENTRAL ARKANSAS...

CITY           SKY/WX    TMP DP  RH WIND       PRES   REMARKS
LITTLE ROCK    CLEAR     69  66  90 CALM      30.01R


SKY/WX REPORTED AS FAIR MEANS FEW OR NO CLOUDS BELOW
12 THOUSAND FEET.



USA.gov is the U.S. government's official web portal to all federal, state and local government web resources and services.